TimeEST,TemperatureF,Dew PointF,Humidity,Sea Level PressureIn,VisibilityMPH,Wind Direction,Wind SpeedMPH,Gust SpeedMPH,PrecipitationIn,Events,Conditions,WindDirDegrees,DateUTC
12:15 AM,26.6,26.6,100,30.37,9.0,Calm,Calm,-,N/A,,Clear,0,2012-12-01 05:15:00
12:35 AM,26.6,26.6,100,30.36,10.0,Calm,Calm,-,N/A,,Clear,0,2012-12-01 05:35:00
1:15 AM,26.6,26.6,100,30.35,10.0,Calm,Calm,-,N/A,,Clear,0,2012-12-01 06:15:00
1:35 AM,28.4,28.4,100,30.36,10.0,Calm,Calm,-,N/A,,Mostly Cloudy,0,2012-12-01 06:35:00
1:55 AM,30.2,30.2,100,30.35,10.0,Calm,Calm,-,N/A,,Overcast,0,2012-12-01 06:55:00
2:15 AM,30.2,28.4,93,30.36,10.0,Calm,Calm,-,N/A,,Scattered Clouds,0,2012-12-01 07:15:00
2:35 AM,30.2,30.2,100,30.36,10.0,Calm,Calm,-,N/A,,Clear,0,2012-12-01 07:35:00
2:55 AM,28.4,28.4,100,30.36,10.0,Calm,Calm,-,N/A,,Clear,0,2012-12-01 07:55:00
3:15 AM,28.4,28.4,100,30.36,10.0,Calm,Calm,-,N/A,,Clear,0,2012-12-01 08:15:00
3:55 AM,26.6,24.8,93,30.35,9.0,Calm,Calm,-,N/A,,Clear,0,2012-12-01 08:55:00
4:15 AM,26.6,26.6,100,30.35,9.0,Calm,Calm,-,N/A,,Clear,0,2012-12-01 09:15:00
4:35 AM,26.6,24.8,93,30.36,10.0,Calm,Calm,-,N/A,,Clear,0,2012-12-01 09:35:00
4:55 AM,26.6,26.6,100,30.37,10.0,Calm,Calm,-,N/A,,Clear,0,2012-12-01 09:55:00
5:15 AM,26.6,26.6,100,30.37,10.0,Calm,Calm,-,N/A,,Clear,0,2012-12-01 10:15:00
5:35 AM,26.6,24.8,93,30.38,10.0,Calm,Calm,-,N/A,,Partly Cloudy,0,2012-12-01 10:35:00
6:15 AM,24.8,24.8,100,30.40,10.0,Calm,Calm,-,N/A,,Clear,0,2012-12-01 11:15:00
8:55 AM,37.4,35.6,93,30.45,6.0,North,6.9,-,N/A,,Clear,360,2012-12-01 13:55:00
10:45 AM,41.0,39.2,93,30.44,2.5,NNE,4.6,-,N/A,,Overcast,30,2012-12-01 15:45:00
11:50 AM,44.6,39.2,81,30.43,3.0,North,6.9,-,N/A,,Mostly Cloudy,360,2012-12-01 16:50:00
2:45 PM,50.0,39.2,66,30.36,5.0,North,4.6,-,N/A,,Clear,350,2012-12-01 19:45:00
7:45 PM,33.8,33.8,100,30.41,3.0,Calm,Calm,-,N/A,,Clear,0,2012-12-02 00:45:00
7:55 PM,37.4,35.6,93,30.41,5.0,Calm,Calm,-,N/A,,Clear,0,2012-12-02 00:55:00
8:15 PM,32.0,32.0,100,30.41,4.0,Calm,Calm,-,N/A,,Clear,0,2012-12-02 01:15:00
8:35 PM,32.0,30.2,93,30.41,5.0,Calm,Calm,-,N/A,,Clear,0,2012-12-02 01:35:00
8:45 PM,32.0,30.2,93,30.41,4.0,Calm,Calm,-,N/A,,Clear,0,2012-12-02 01:45:00
8:55 PM,32.0,30.2,93,30.41,3.0,Calm,Calm,-,N/A,,Clear,0,2012-12-02 01:55:00
9:15 PM,30.2,30.2,100,30.41,3.0,Calm,Calm,-,N/A,,Clear,0,2012-12-02 02:15:00
9:35 PM,30.2,30.2,100,30.41,5.0,Calm,Calm,-,N/A,,Clear,0,2012-12-02 02:35:00
9:45 PM,30.2,30.2,100,30.41,4.0,Calm,Calm,-,N/A,,Clear,0,2012-12-02 02:45:00
9:55 PM,30.2,30.2,100,30.41,4.0,Calm,Calm,-,N/A,,Clear,0,2012-12-02 02:55:00
10:15 PM,30.2,30.2,100,30.41,3.0,Calm,Calm,-,N/A,,Clear,0,2012-12-02 03:15:00
10:35 PM,30.2,30.2,100,30.41,2.0,Calm,Calm,-,N/A,,Clear,0,2012-12-02 03:35:00
10:55 PM,28.4,28.4,100,30.41,4.0,Calm,Calm,-,N/A,,Partly Cloudy,0,2012-12-02 03:55:00
11:15 PM,30.2,30.2,100,30.40,4.0,Calm,Calm,-,N/A,,Partly Cloudy,0,2012-12-02 04:15:00
11:35 PM,30.2,28.4,93,30.40,1.8,Calm,Calm,-,N/A,,Overcast,0,2012-12-02 04:35:00
11:55 PM,30.2,28.4,93,30.40,2.0,Calm,Calm,-,N/A,,Overcast,0,2012-12-02 04:55:00